Vorticity
nan nan nan nan nan nan nan nan nan nan nan nan nan nan nan nan nan nan nan nan nan nan nan nan nan nan nan nan nan nan nan nan nan nan nan nan nan nan nan nan nan nan nan nan nan
nan 8 8 8 7 7 6 7 7 7 7 7 7 7 7 10 16 14 13 10 10 7 3 4 5 4 3 6 7 9 9 12 10 7 4 4 8 7 7 8 6 10 8 6 nan
nan 8 8 8 8 7 7 7 7 7 7 7 7 7 7 11 18 19 8 7 7 2 4 2 5 4 9 8 7 13 16 11 4 3 11 12 4 1 11 16 11 6 6 5 nan
nan 8 9 9 8 8 8 8 7 7 7 7 8 8 11 14 10 13 12 5 4 4 10 9 5 5 16 5 6 13 11 11 6 3 11 15 4 6 10 13 14 10 7 4 nan
nan 8 10 10 9 8 8 8 8 8 7 7 7 11 15 8 10 11 8 7 6 6 8 7 7 8 8 7 9 13 9 9 4 4 10 8 7 10 9 8 7 7 7 5 nan
nan 7 9 10 9 9 9 9 8 8 8 9 8 12 12 9 10 10 7 5 5 6 6 4 4 9 3 9 13 15 12 4 7 2 5 5 10 12 8 6 6 7 5 7 nan
nan 7 7 9 10 9 9 9 9 10 10 9 10 8 9 15 10 7 10 8 7 6 6 7 4 6 6 15 9 7 6 5 8 3 6 10 13 2 7 6 4 7 6 6 nan
nan 8 7 7 9 10 10 9 11 15 13 11 9 7 13 10 6 7 8 10 9 6 6 9 7 10 15 8 8 9 -0 7 10 4 5 4 8 5 13 5 5 4 6 5 nan
nan 8 8 8 9 10 9 10 19 20 13 9 7 9 6 6 13 10 9 10 8 7 6 4 8 11 12 9 7 6 5 16 12 6 1 4 7 10 5 7 13 6 6 6 nan
nan 8 9 10 9 9 12 15 16 16 9 2 12 12 12 10 12 8 10 11 12 6 4 7 11 8 -2 12 8 -4 16 15 9 13 6 8 8 14 8 6 6 4 6 6 nan
nan 9 9 10 10 11 18 16 13 10 1 8 12 8 9 14 11 10 7 9 8 5 5 9 5 1 14 7 -0 4 7 8 13 14 7 7 10 16 9 4 6 12 5 4 nan
nan 9 9 9 11 18 15 2 4 11 17 17 -1 10 14 7 5 11 5 5 8 5 9 2 5 17 13 -3 9 9 4 6 9 6 8 10 10 13 8 8 6 5 8 9 nan
nan 10 10 9 20 22 3 8 3 12 18 18 9 9 8 5 12 12 5 9 9 7 8 3 4 2 7 7 8 8 10 4 10 10 9 -2 15 16 12 7 8 8 4 5 nan
nan 10 8 20 19 11 17 6 4 8 18 17 7 12 10 7 15 11 9 10 7 10 7 7 4 4 7 6 7 5 9 9 9 -2 8 16 -3 12 27 12 9 7 9 9 nan
nan 11 15 17 14 6 8 8 10 9 17 14 8 8 9 4 9 11 10 4 10 9 8 9 12 5 6 10 7 5 3 11 8 10 9 7 3 24 12 14 13 12 10 11 nan
nan 8 22 20 9 9 3 10 12 7 19 10 9 8 2 10 5 11 8 -0 13 18 7 4 11 14 15 8 1 10 7 9 6 10 13 8 5 13 10 15 19 19 13 13 nan
nan 12 19 7 10 13 13 10 7 7 12 16 8 9 4 11 9 8 8 8 5 6 10 14 8 5 14 10 10 7 4 4 6 8 17 13 11 8 13 5 7 14 18 15 nan
nan 28 22 7 7 12 11 8 6 11 4 9 11 6 9 7 5 8 5 4 4 6 8 18 13 12 9 7 10 6 5 2 7 12 12 6 7 5 9 11 9 6 9 15 nan
nan 28 12 14 9 10 11 9 5 6 10 9 6 7 8 2 9 12 7 10 12 8 2 10 12 14 7 11 5 9 10 -1 11 16 4 8 16 11 5 4 6 7 6 10 nan
nan 15 13 10 14 9 9 8 1 6 9 11 14 7 8 8 9 7 9 8 10 11 7 6 9 12 7 6 6 7 13 20 5 5 9 11 9 14 12 10 11 7 7 8 nan
nan 10 13 12 10 9 10 8 13 5 7 6 11 8 11 7 11 0 4 11 16 9 7 1 9 11 6 12 11 13 2 2 1 7 13 8 9 14 13 13 14 5 9 7 nan
nan 11 10 10 9 9 10 4 8 11 9 6 4 11 15 10 8 11 7 9 14 6 11 6 11 7 -1 4 13 2 6 13 17 12 1 1 6 11 12 10 9 10 9 4 nan
nan 14 12 9 8 10 6 8 6 15 6 9 10 10 7 9 7 13 9 16 11 3 16 12 4 8 14 5 3 11 11 9 5 5 7 12 16 13 2 9 5 5 9 9 nan
nan 17 11 7 6 7 17 16 9 7 7 7 8 9 14 12 6 11 11 9 5 6 5 9 8 5 14 15 6 4 12 10 9 8 11 11 11 6 0 8 7 8 4 4 nan
nan 6 10 13 11 6 8 9 14 13 13 9 9 8 8 12 11 8 10 7 7 12 0 5 6 10 8 7 7 4 12 12 8 4 4 5 2 2 14 9 9 10 11 12 nan
nan 6 8 11 9 12 11 10 9 8 7 16 10 13 13 8 7 9 23 14 5 3 8 5 5 7 11 16 9 7 9 4 7 8 9 9 9 8 10 9 7 9 10 10 nan
nan nan nan nan nan nan nan nan nan nan nan nan nan nan nan nan nan nan nan nan nan nan nan nan nan nan nan nan nan nan nan nan nan nan nan nan nan nan nan nan nan nan nan nan nan
CAPE
1 1 1 1 1 1 1 0 2 2 1 2 2 0 0 0 0 0 0 0 0 0 0 0 0 0 0 256 555 455 767 494 390 299 376 297 198 123 16 61 145 105 135 255 190
4 3 2 3 1 2 2 2 1 2 2 1 1 0 0 0 0 0 0 0 0 0 0 0 0 0 9 410 829 614 816 601 595 422 353 390 128 113 82 114 96 150 131 99 84
4 1 0 1 1 2 1 0 0 0 1 1 1 0 0 0 0 0 0 0 0 0 0 0 0 0 1 529 621 693 643 566 158 74 643 430 119 78 77 73 89 144 94 65 23
3 1 1 1 1 1 1 0 1 1 1 0 0 0 0 0 0 0 0 0 0 0 0 0 0 0 60 525 557 626 555 454 94 80 710 483 214 102 66 46 78 104 78 6 4
3 1 1 1 2 1 0 1 2 1 2 1 0 0 0 0 0 0 0 0 0 0 0 0 0 18 313 623 551 428 343 227 9 119 344 433 316 115 27 16 41 81 45 6 10
3 3 2 2 1 1 0 0 1 1 1 0 0 0 0 0 0 0 0 0 0 0 0 0 0 0 474 673 780 674 404 259 30 19 123 183 277 256 57 12 61 81 81 33 9
3 4 5 1 1 1 1 1 1 1 0 0 0 0 0 0 0 0 0 0 0 0 0 0 0 95 651 745 738 611 416 310 219 1 42 27 93 132 114 54 92 105 116 62 18
3 3 5 3 2 1 2 0 1 1 0 0 0 0 0 0 0 0 0 0 0 0 0 0 0 10 579 755 680 737 542 569 362 242 117 38 63 119 256 52 123 90 91 82 46
2 1 3 2 3 2 0 0 0 0 0 0 0 0 0 0 0 0 0 0 0 0 0 0 62 406 418 743 604 702 451 243 863 388 144 158 69 49 494 146 73 149 122 118 97
2 1 1 1 2 2 0 0 0 0 0 0 0 0 0 0 0 0 0 0 0 0 0 0 175 454 404 32 160 296 96 303 501 695 647 379 266 371 429 352 138 91 204 136 119
2 1 0 0 0 0 0 0 0 0 0 0 0 0 0 0 0 0 0 0 0 0 0 0 94 162 182 185 0 73 65 16 331 658 542 506 435 519 321 458 243 236 162 163 112
2 1 0 0 0 0 0 0 0 0 0 0 0 0 0 0 0 0 0 0 0 0 0 0 0 76 146 122 425 257 163 21 77 517 694 452 452 1058 859 728 496 268 251 250 267
0 1 0 0 0 0 0 0 0 0 0 0 0 0 0 0 0 0 0 0 0 0 0 0 40 4 0 13 52 162 49 4 7 337 509 494 319 512 977 1056 864 702 264 273 217
0 0 0 0 0 0 0 0 0 0 0 0 0 0 0 0 0 0 0 0 0 0 0 0 2 0 0 0 0 57 0 0 0 79 230 237 25 0 593 951 927 834 801 403 181
0 0 0 2 0 0 0 0 0 0 47 0 0 0 0 0 0 0 0 0 0 0 0 0 0 0 0 0 1 52 0 0 27 190 395 286 109 124 345 884 965 934 826 703 248
0 0 0 0 0 0 0 0 0 0 9 0 0 0 0 0 0 0 0 0 0 0 0 0 0 0 0 0 1 0 0 5 18 69 125 213 177 224 33 90 357 1100 962 888 610
0 0 0 0 0 0 0 0 0 0 0 0 0 0 0 0 0 0 0 0 0 0 0 0 0 0 0 0 0 0 17 125 166 179 125 184 174 176 51 33 135 383 725 1095 979
0 0 0 0 0 0 0 0 0 0 2 0 0 0 0 0 0 0 0 0 0 0 0 0 0 0 0 0 19 0 22 84 85 81 124 224 145 72 88 54 216 466 554 802 1033
0 0 0 0 0 0 0 0 0 0 1 0 0 0 0 0 1 0 0 0 0 0 0 0 1 0 0 0 0 2 27 25 14 29 20 21 49 33 32 64 218 277 559 915 1031
0 0 0 0 0 0 0 0 0 0 0 0 0 0 0 0 0 0 0 0 0 0 0 7 19 0 0 0 0 0 6 16 10 15 24 51 14 39 78 45 255 167 163 533 968
0 0 0 0 0 0 0 0 0 0 0 0 0 2 1 51 1 3 8 3 0 0 0 1 1 3 0 0 4 0 0 0 1 17 42 47 134 49 15 31 143 138 117 303 307
0 0 0 0 0 0 0 0 0 0 0 0 0 0 3 10 47 2 23 33 1 0 0 0 20 70 63 46 5 0 1 24 107 123 47 98 179 65 47 18 100 206 352 410 762
0 0 0 0 0 0 0 0 0 0 0 0 0 0 0 0 33 44 33 22 0 0 0 12 0 54 142 78 11 0 0 8 24 75 92 78 184 387 309 271 375 398 463 923 938
0 0 0 0 0 0 0 0 0 0 0 0 0 0 0 0 1 34 68 37 0 0 29 0 10 44 144 43 78 187 59 23 7 66 90 74 56 78 97 85 126 318 710 848 860
0 0 0 0 0 0 0 0 0 0 0 0 0 0 0 5 4 20 36 99 0 0 0 0 20 61 33 21 2 1 6 17 10 1 1 1 1 0 0 6 32 30 373 729 812
0 0 0 0 0 0 0 0 0 0 0 0 0 0 0 15 17 83 79 78 81 19 0 21 39 28 77 36 5 3 0 0 1 0 0 0 0 0 16 19 15 30 116 581 827
3 1 0 0 0 0 0 0 0 1 0 0 2 13 23 17 23 1 1 0 29 109 79 31 60 84 165 58 24 66 36 29 13 8 8 0 4 17 21 12 9 73 292 715 1016